星链-35803(STARLINK-35803)

导读 | 豆包AI

STARLINK-35803是美国SpaceX星链星座的成员,于2025年11月21日发射升空。作为星链互联网卫星网络的一部分,它承担着为全球提供低延迟、高速宽带互联网覆盖的任务,尤其服务偏远地区、移动载体等难以接入传统网络的场景,助力SpaceX完成大规模低轨星座组网布局。

基本信息
目录编号:
66568
目录名称:
STARLINK-35803
国际标识:
2025-268M
轨道中心:
EARTH
卫星名称:
星链-35803
卫星全名:
星链-35803(STARLINK-35803)
卫星状态:
在轨 (已飞行113 天)
发射日期:
2025-11-21 UTC
国别 :
美国 (US)
星等 :
--
轨道信息
数据来源 国际轨道数据
星历时间: 2026-03-13T10:06:59+0800
1天前
查看轨道信息
半长轴: 6861.17km
偏心率: 0.0001235
轨道倾角: 43.002°
近地点辐角 244.135°
升交点赤经 327.510°
平近点角 115.937°
近地点: 482.185km
远地点: 483.881km
周期: 94.266分钟
每日圈数: 15.275854
详细信息
固有亮度:
5
最大亮度:
2.5
卫星平台:
Starlink V1.0
覆盖范围:
全球
运营商:
太空探索技术公司
运营商所在国:
美国
制造商(研发单位):
太空探索技术公司
制造商所在国:
美国
使用方式:
暂无
卫星简介
Starlink 计划是 SpaceX 推出的全球卫星互联网项目,通过发射低轨道卫星,为全球尤其是偏远地区提供高速、低延迟的互联网服务。自 2019 年起,Starlink 已部署数千颗卫星,旨在缩小全球数字鸿沟,推动互联网普及。该项目还为军事、航空等行业提供通信支持,带来广泛经济效益。
2D轨道图
3D轨道图
轨道高度分析图
轨道倾角分析图
轨道综合分析图
查看轨道综合分析图